[[{"header":{"parameterUnit":"m.s-1","parameterCategory":2,"la1":30.2991,"la2":30.254,"lo1":-89.0895,"lo2":-89.0444,"dy":0.0017,"dx":0.0017,"nx":28,"ny":28,"refTime":"2023-09-21T21:00:00:Z","depth":"0","parameterNumber":2,"parameterNumberName":"U-component_of_CURRENTS"},"data":[0,0,0,0,0,0,0,0,0,0,0,0,0,0,0,0,0,0,0,0,0,0,0,0,0,0,0,0,0,0,0,0,0,0,0,0,0,0,0,0,0,0,0,0,0,0,0,0,0,0,0,0,0,0,0,0,0,0,-0.2663,-0.2663,0,-0.2665,-0.2665,-0.2665,-0.2607,-0.2605,-0.2604,-0.2602,-0.2511,-0.251,-0.2509,0,0,0,0,0,0,0,0,0,0,0,0,0,-0.251,-0.2513,-0.2663,-0.2663,-0.2663,-0.2665,-0.2665,-0.2665,-0.2607,-0.2605,-0.2603,-0.2602,-0.2512,-0.251,-0.2509,0,0,0,0,0,0,0,0,0,0,0,0,0,-0.2549,-0.2515,-0.2663,-0.2636,-0.2634,-0.2665,-0.2665,-0.2664,-0.2607,-0.2605,-0.2603,-0.2601,-0.2512,-0.251,-0.2509,-0.254,0,0,-0.2503,-0.2503,0,0,0,0,0,0,0,0,-0.2547,-0.2555,-0.264,-0.2638,-0.2635,-0.2635,-0.2577,-0.2619,-0.2608,-0.2616,-0.2602,-0.26,-0.2547,-0.2542,-0.2546,-0.2536,-0.2532,-0.2503,-0.2502,-0.2502,-0.2501,0,0,0,0,0,0,0,-0.2545,-0.2554,-0.2662,-0.264,-0.2638,-0.259,-0.2594,-0.2585,-0.259,-0.2615,-0.2611,-0.2614,-0.2544,-0.2548,-0.2543,-0.253,-0.2503,-0.2502,-0.2501,-0.25,-0.2402,-0.24,0,0,0,0,0,0,-0.2556,-0.2553,-0.2662,-0.2662,-0.2587,-0.2595,-0.2599,-0.2636,-0.2592,-0.2584,-0.2616,-0.2612,-0.2552,-0.2545,-0.2539,-0.2476,-0.2502,-0.25,-0.2499,-0.2403,-0.2401,-0.2399,0,0,0,0,0,0,-0.2554,-0.2568,-0.2662,-0.2606,-0.2615,-0.26,-0.2641,-0.2637,-0.263,-0.2594,-0.2584,-0.2612,-0.255,-0.2542,-0.2521,-0.2476,-0.2499,-0.2498,-0.2405,-0.2403,-0.24,-0.2412,0,0,0,0,0,0,-0.255,-0.2568,-0.2595,-0.2608,-0.2618,-0.2672,-0.2644,-0.2639,-0.2637,-0.263,-0.2588,-0.2578,-0.2547,-0.2524,-0.2519,-0.2474,-0.2496,-0.2407,-0.2404,-0.2401,-0.2414,-0.241,-0.2407,0,0,0,0,0,-0.2545,-0.2585,-0.2598,-0.261,-0.266,-0.2673,-0.2674,-0.2653,-0.2639,-0.2638,-0.2609,-0.2579,-0.2499,-0.2523,-0.2518,-0.247,-0.2408,-0.2405,-0.2401,-0.2415,-0.2411,-0.2408,0,0,0,0,0,0,-0.2532,-0.2584,-0.2597,-0.2653,-0.2662,-0.2663,-0.2664,-0.2659,-0.2641,-0.2629,-0.2591,-0.258,-0.253,-0.251,-0.2537,-0.2428,-0.2436,-0.2431,-0.2448,-0.2444,-0.2441,-0.2444,-0.2495,0,0,0,0,0,-0.255,-0.2586,-0.2623,-0.2659,-0.267,-0.2672,-0.2675,-0.2667,-0.2656,-0.2645,-0.2611,-0.2564,-0.2516,-0.2492,-0.2453,-0.2425,-0.2421,-0.2377,-0.2374,-0.2372,-0.2368,-0.2367,-0.2365,-0.2388,-0.2388,-0.2388,0,0,-0.255,-0.2584,-0.2603,-0.2657,-0.2662,-0.2647,-0.2667,-0.2675,-0.2641,-0.2639,-0.2581,-0.2563,-0.2507,-0.2455,-0.2428,-0.2431,-0.2358,-0.2367,-0.2366,-0.2363,-0.2363,-0.2361,-0.236,-0.2385,-0.2386,-0.2386,0,0,-0.2525,-0.2606,-0.2603,-0.2617,-0.2636,-0.2642,-0.2646,-0.2652,-0.2636,-0.2604,-0.2574,-0.2548,-0.2475,-0.2434,-0.2399,-0.2363,-0.2346,-0.2327,-0.2314,-0.2314,-0.2313,-0.2312,-0.2293,-0.229,-0.2323,-0.2323,-0.2323,0,-0.2513,-0.2534,-0.2599,-0.2586,-0.2588,-0.2633,-0.2607,-0.2602,-0.259,-0.2587,-0.2572,-0.2492,-0.2454,-0.2394,-0.2364,-0.2354,-0.2352,-0.2339,-0.2314,-0.2313,-0.2312,-0.2293,-0.229,-0.2323,-0.2323,-0.2323,-0.2323,0,-0.2461,-0.2482,-0.2483,-0.2482,-0.2497,-0.2498,-0.251,-0.2515,-0.2509,-0.2502,-0.2466,-0.244,-0.2396,-0.2364,-0.2346,-0.2307,-0.2306,-0.2319,-0.2335,-0.2311,-0.2291,-0.2288,-0.2323,-0.2323,-0.2323,-0.2323,0,0,-0.2402,-0.2439,-0.2431,-0.2431,-0.2453,-0.2463,-0.2436,-0.2439,-0.2435,-0.2415,-0.2395,-0.2323,-0.2353,-0.2316,-0.2306,-0.2298,-0.2281,-0.2303,-0.2303,-0.2301,-0.2271,-0.2197,-0.2187,-0.2303,-0.2302,-0.2302,-0.2256,0,-0.2326,-0.2298,-0.2332,-0.2297,-0.2292,-0.2349,-0.2327,-0.2343,-0.2355,-0.2354,-0.2351,-0.2323,-0.2318,-0.2313,-0.2304,-0.2297,-0.2275,-0.2292,-0.2276,-0.2275,-0.2229,-0.2182,-0.2089,-0.2034,-0.2253,-0.2252,-0.2252,0,-0.2229,-0.2241,-0.2202,-0.2243,-0.2248,-0.223,-0.2265,-0.2255,-0.2283,-0.2298,-0.2305,-0.2316,-0.2299,-0.2303,-0.2279,-0.2296,-0.2272,-0.2264,-0.2263,-0.2189,-0.2196,-0.2092,-0.202,-0.2007,-0.2247,-0.2248,-0.2248,0,-0.2139,-0.2143,-0.2123,-0.2129,-0.2173,-0.2174,-0.2196,-0.2232,-0.2247,-0.2275,-0.2295,-0.2295,-0.2295,-0.2283,-0.2261,-0.2276,-0.2236,-0.2259,-0.2163,-0.2158,-0.2069,-0.2056,-0.1997,-0.2223,-0.2223,-0.2223,-0.2224,0,-0.2044,-0.2023,-0.2086,-0.2077,-0.2077,-0.2124,-0.213,-0.2163,-0.2208,-0.222,-0.2267,-0.2268,-0.2293,-0.228,-0.2258,-0.2191,-0.2231,-0.2141,-0.2136,-0.2066,-0.2053,-0.203,-0.2063,-0.2222,-0.2222,-0.2222,-0.2223,0,-0.1927,-0.1961,-0.1955,-0.2013,-0.203,-0.203,-0.2097,-0.2105,-0.2167,-0.2185,-0.2195,-0.2247,-0.2227,-0.2231,-0.2206,-0.2174,-0.2086,-0.2087,-0.199,-0.1973,-0.1868,-0.1905,-0.1842,-0.179,-0.1977,-0.1975,-0.1973,0,-0.1858,-0.1844,-0.1908,-0.191,-0.193,-0.1956,-0.1971,-0.2059,-0.2081,-0.2154,-0.215,-0.2162,-0.2134,-0.2081,-0.2028,-0.1964,-0.1984,-0.185,-0.1851,-0.1825,-0.1864,-0.1898,-0.1863,-0.1737,-0.1733,-0.173,-0.1728,0,-0.174,-0.1768,-0.1778,-0.1799,-0.1814,-0.1845,-0.1882,-0.1906,-0.1998,-0.202,-0.2025,-0.2011,-0.1976,-0.1877,-0.1818,-0.177,-0.1807,-0.1785,-0.179,-0.1682,-0.1685,-0.1644,-0.1805,-0.1701,-0.1704,-0.1706,-0.1707,-0.1709,-0.1645,-0.1635,-0.1657,-0.1667,-0.1693,-0.1707,-0.1691,-0.1748,-0.1766,-0.1775,-0.1842,-0.1789,-0.1772,-0.1667,-0.1623,-0.1528,-0.1593,-0.149,-0.1539,-0.1578,-0.1513,-0.1598,-0.1474,-0.1475,-0.1476,-0.1477,-0.1478,0,-0.1514,-0.1519,-0.1521,-0.1531,-0.1513,-0.1572,-0.1602,-0.1569,-0.1543,-0.1579,-0.156,-0.1532,-0.1453,-0.1454,-0.1386,-0.1318,-0.1299,-0.1293,-0.133,-0.1307,-0.1393,-0.1365,-0.1173,-0.1173,-0.1173,-0.1173,-0.1173,-0.1173,-0.1438,-0.1395,-0.1409,-0.1343,-0.1348,-0.1286,-0.1276,-0.1251,-0.1259,-0.1205,-0.1201,-0.1227,-0.1278,-0.1398,-0.1324,-0.1254,-0.1243,-0.1186,-0.1227,-0.131,-0.1334,-0.1356,-0.1335,-0.114,-0.114,-0.1077,-0.1077,-0.1076]},{"header":{"parameterUnit":"m.s-1","parameterCategory":2,"la1":30.2991,"la2":30.254,"lo1":-89.0895,"lo2":-89.0444,"dy":0.0017,"dx":0.0017,"nx":28,"ny":28,"refTime":"2023-09-21T21:00:00:Z","depth":"0","parameterNumber":3,"parameterNumberName":"V-component_of_CURRENTS"},"data":[0,0,0,0,0,0,0,0,0,0,0,0,0,0,0,0,0,0,0,0,0,0,0,0,0,0,0,0,0,0,0,0,0,0,0,0,0,0,0,0,0,0,0,0,0,0,0,0,0,0,0,0,0,0,0,0,0,0,-0.0246,-0.0245,0,-0.013,-0.0129,-0.0127,-0.0052,-0.0051,-0.0051,-0.005,0.0085,0.0088,0.0091,0,0,0,0,0,0,0,0,0,0,0,0,0,-0.0356,-0.0355,-0.0246,-0.0245,-0.0243,-0.013,-0.0129,-0.0127,-0.0052,-0.0051,-0.0051,-0.005,0.0084,0.0088,0.0092,0,0,0,0,0,0,0,0,0,0,0,0,0,-0.028,-0.0354,-0.0246,-0.0193,-0.0187,-0.0131,-0.0129,-0.0126,-0.0052,-0.0051,-0.0051,-0.005,0.0083,0.0087,0.0092,0.0111,0,0,0.0107,0.0109,0,0,0,0,0,0,0,0,-0.0285,-0.0276,-0.0202,-0.0197,-0.019,-0.0106,-0.0118,-0.0047,-0.0052,-0.0102,-0.005,-0.005,0.0022,0.0032,0.0054,0.0117,0.0123,0.0107,0.011,0.0112,0.0114,0,0,0,0,0,0,0,-0.029,-0.028,-0.0199,-0.0201,-0.0193,-0.0159,-0.0148,-0.0104,-0.0044,-0.0098,-0.0092,-0.0081,0.0026,0.0049,0.0057,0.0125,0.0107,0.0112,0.0115,0.0117,0.0205,0.0204,0,0,0,0,0,0,-0.0309,-0.0286,-0.0203,-0.0196,-0.0238,-0.0158,-0.0145,-0.0132,-0.0044,-0.0031,-0.0082,-0.0078,0.004,0.0052,0.0062,0.0084,0.0112,0.0117,0.012,0.0205,0.0205,0.0204,0,0,0,0,0,0,-0.0312,-0.0303,-0.0207,-0.0239,-0.0224,-0.0157,-0.0143,-0.013,-0.0107,-0.0033,-0.0018,-0.0072,0.0041,0.0056,0.0101,0.009,0.0119,0.0124,0.0206,0.0205,0.0204,0.013,0,0,0,0,0,0,-0.0316,-0.0305,-0.0305,-0.024,-0.0223,-0.0183,-0.0143,-0.0129,-0.0102,-0.0096,-0.0019,-0.0006,0.0043,0.0093,0.0105,0.0097,0.0127,0.0207,0.0206,0.0205,0.0133,0.0127,0.0121,0,0,0,0,0,-0.032,-0.0324,-0.0305,-0.0295,-0.0225,-0.0184,-0.0172,-0.0121,-0.0103,-0.0098,-0.0043,-0.0008,0.0095,0.0097,0.0111,0.0104,0.0207,0.0206,0.0205,0.0136,0.0128,0.0121,0,0,0,0,0,0,-0.0375,-0.0315,-0.0293,-0.0279,-0.024,-0.0172,-0.0163,-0.013,-0.0082,-0.0078,-0.0007,0.001,0.0041,0.0082,0.0082,0.0125,0.0153,0.0155,0.0096,0.0089,0.0083,0.0074,0.0131,0,0,0,0,0,-0.0388,-0.0374,-0.0314,-0.0306,-0.0289,-0.0229,-0.0207,-0.0174,-0.0123,-0.0102,-0.0048,0.0005,0.0047,0.0075,0.0117,0.0147,0.019,0.0148,0.0142,0.0137,0.0139,0.0192,0.0191,0.02,0.02,0.02,0,0,-0.0408,-0.0375,-0.0366,-0.0317,-0.0282,-0.0262,-0.0214,-0.0189,-0.0171,-0.0095,-0.006,-0.0015,0.0048,0.0079,0.0096,0.0114,0.0156,0.0135,0.013,0.0136,0.019,0.019,0.0189,0.0199,0.0199,0.0199,0,0,-0.0443,-0.0413,-0.041,-0.0381,-0.0335,-0.0296,-0.0294,-0.0232,-0.0203,-0.0165,-0.0111,-0.007,-0.0003,0.0043,0.0074,0.0061,0.0117,0.0065,0.0037,0.0088,0.0088,0.0088,0.0135,0.0141,0.0067,0.0067,0.0067,0,-0.0472,-0.0454,-0.0406,-0.0396,-0.0377,-0.0317,-0.0313,-0.0276,-0.0208,-0.0186,-0.0167,-0.0069,-0.0019,0.0029,0.0024,0.0048,0.0084,0.0059,0.008,0.0082,0.0083,0.0132,0.0139,0.0064,0.0064,0.0064,0.0065,0,-0.0496,-0.0484,-0.0483,-0.0447,-0.0425,-0.0413,-0.0357,-0.0334,-0.0296,-0.0251,-0.0204,-0.0132,-0.0072,-0.0057,-0.0016,0.0016,0.004,0.0061,0.0097,0.0078,0.013,0.0139,0.0058,0.006,0.0061,0.0062,0,0,-0.0552,-0.0508,-0.0508,-0.0501,-0.045,-0.0435,-0.0413,-0.0368,-0.0351,-0.0291,-0.0259,-0.019,-0.015,-0.0112,-0.006,-0.0014,0.0028,0.0024,0.0028,0.0069,0.0139,0.0177,0.019,0.0052,0.0053,0.0054,0.0168,0,-0.0584,-0.0583,-0.0547,-0.0549,-0.0543,-0.0489,-0.0472,-0.0427,-0.038,-0.0335,-0.026,-0.0213,-0.0171,-0.0143,-0.0093,0.0002,0.0048,-0.0005,0.0154,0.0159,0.0194,0.0201,0.0238,0.0345,0.0176,0.0178,0.0179,0,-0.0611,-0.0608,-0.0614,-0.0593,-0.0586,-0.0579,-0.0542,-0.0517,-0.0443,-0.0405,-0.0344,-0.0277,-0.0195,-0.0163,-0.0015,-0.005,0.0034,0.0105,0.0111,0.0181,0.0213,0.0339,0.0367,0.0502,0.0193,0.0192,0.0191,0,-0.0663,-0.0653,-0.066,-0.0652,-0.0619,-0.0617,-0.06,-0.0542,-0.0521,-0.0446,-0.0419,-0.0314,-0.0251,-0.014,0.0009,-0.0001,0.0175,0.0183,0.0297,0.03,0.0383,0.0392,0.0561,0.0282,0.0282,0.0281,0.0281,0,-0.0697,-0.0705,-0.0688,-0.0693,-0.0713,-0.0671,-0.0675,-0.064,-0.0585,-0.0554,-0.0462,-0.0404,-0.0241,-0.0117,0.0003,0.0183,0.0175,0.03,0.0336,0.0356,0.0361,0.0523,0.0574,0.0286,0.0285,0.0284,0.0283,0,-0.0737,-0.0721,-0.074,-0.0733,-0.0733,-0.0751,-0.0734,-0.073,-0.0673,-0.0628,-0.0604,-0.0457,-0.0287,-0.0123,0.0082,0.0185,0.0438,0.0406,0.0417,0.0453,0.0671,0.0715,0.0914,0.1003,0.0548,0.055,0.0551,0,-0.075,-0.0763,-0.0784,-0.0805,-0.0804,-0.082,-0.0826,-0.0782,-0.0765,-0.065,-0.0625,-0.0454,-0.0308,-0.0001,0.0216,0.044,0.0532,0.0591,0.0579,0.07,0.0777,0.0796,0.0857,0.066,0.0662,0.0664,0.0665,0,-0.0787,-0.0797,-0.0816,-0.0862,-0.0885,-0.0907,-0.0905,-0.0902,-0.0828,-0.0761,-0.0619,-0.0489,-0.0183,0.0116,0.0393,0.0518,0.0699,0.0634,0.0769,0.0889,0.0914,0.1011,0.0561,0.0681,0.0679,0.0678,0.0677,0.0677,-0.0817,-0.0849,-0.0876,-0.0917,-0.095,-0.097,-0.0969,-0.093,-0.0875,-0.0723,-0.0614,-0.0365,0.0029,0.0443,0.0595,0.0906,0.0858,0.0987,0.1034,0.1045,0.1125,0.0704,0.0854,0.0853,0.0853,0.0852,0.0852,0,-0.0844,-0.0874,-0.0923,-0.0969,-0.1006,-0.1006,-0.0997,-0.0949,-0.0851,-0.0676,-0.0501,-0.0039,0.0357,0.0708,0.1133,0.1299,0.1334,0.1368,0.1415,0.1462,0.111,0.111,0.1311,0.1311,0.1311,0.131,0.131,0.131,-0.086,-0.0904,-0.0929,-0.0992,-0.1023,-0.1028,-0.1011,-0.0901,-0.0759,-0.0432,-0.0145,0.0075,0.0543,0.1233,0.1634,0.166,0.1816,0.1786,0.1872,0.1634,0.1602,0.1571,0.1585,0.1882,0.1883,0.2214,0.2217,0.222]}],[{"header":{"parameterUnit":"m.s-1","parameterCategory":2,"la1":30.2991,"la2":30.254,"lo1":-89.0895,"lo2":-89.0444,"dy":0.0017,"dx":0.0017,"nx":28,"ny":28,"refTime":"2023-09-21T21:00:00:Z","depth":"2","parameterNumber":2,"parameterNumberName":"U-component_of_CURRENTS"},"data":[0,0,0,0,0,0,0,0,0,0,0,0,0,0,0,0,0,0,0,0,0,0,0,0,0,0,0,0,0,0,0,0,0,0,0,0,0,0,0,0,0,0,0,0,0,0,0,0,0,0,0,0,0,0,0,0,0,0,-0.2009,-0.2009,0,-0.2018,-0.2018,-0.2019,-0.2002,-0.2001,-0.2,-0.1999,-0.198,-0.198,-0.198,0,0,0,0,0,0,0,0,0,0,0,0,0,-0.1971,-0.1972,-0.2009,-0.2009,-0.2009,-0.2018,-0.2018,-0.2019,-0.2002,-0.2001,-0.2,-0.1999,-0.198,-0.198,-0.198,0,0,0,0,0,0,0,0,0,0,0,0,0,-0.1988,-0.1973,-0.2009,-0.1999,-0.1998,-0.2018,-0.2018,-0.2019,-0.2002,-0.2001,-0.1999,-0.1998,-0.1979,-0.198,-0.198,-0.2009,0,0,-0.1982,-0.1982,0,0,0,0,0,0,0,0,-0.1987,-0.199,-0.2001,-0.2,-0.1999,-0.2004,-0.1997,-0.2013,-0.2002,-0.2004,-0.1999,-0.1998,-0.1984,-0.1984,-0.1994,-0.2008,-0.2007,-0.1982,-0.1982,-0.1982,-0.1982,0,0,0,0,0,0,0,-0.1986,-0.1989,-0.2016,-0.2001,-0.1999,-0.1991,-0.1993,-0.2001,-0.2003,-0.2004,-0.2002,-0.1998,-0.1984,-0.1993,-0.1993,-0.2007,-0.1982,-0.1982,-0.1982,-0.1982,-0.2016,-0.2016,0,0,0,0,0,0,-0.198,-0.1988,-0.2016,-0.2016,-0.1986,-0.1993,-0.1995,-0.2007,-0.2004,-0.2001,-0.1999,-0.1997,-0.1993,-0.1992,-0.1992,-0.2003,-0.1982,-0.1982,-0.1983,-0.2015,-0.2016,-0.2016,0,0,0,0,0,0,-0.198,-0.1983,-0.2015,-0.1998,-0.2001,-0.1995,-0.2008,-0.2007,-0.2016,-0.2,-0.1997,-0.2008,-0.1992,-0.1991,-0.2004,-0.2003,-0.1983,-0.1983,-0.2014,-0.2015,-0.2016,-0.2039,0,0,0,0,0,0,-0.1979,-0.1984,-0.1991,-0.1999,-0.2002,-0.2039,-0.2009,-0.2008,-0.2014,-0.2012,-0.2007,-0.2004,-0.1991,-0.2003,-0.2004,-0.2003,-0.1983,-0.2013,-0.2015,-0.2016,-0.2038,-0.2041,-0.2043,0,0,0,0,0,-0.1978,-0.1982,-0.1992,-0.1995,-0.2013,-0.204,-0.2042,-0.2034,-0.2016,-0.2035,-0.2024,-0.2004,-0.201,-0.2005,-0.2006,-0.2004,-0.2013,-0.2014,-0.2016,-0.2036,-0.204,-0.2043,0,0,0,0,0,0,-0.1965,-0.1982,-0.1992,-0.2001,-0.2028,-0.2036,-0.2039,-0.2041,-0.2049,-0.2041,-0.2022,-0.202,-0.2026,-0.202,-0.2014,-0.2018,-0.2005,-0.2007,-0.202,-0.2024,-0.2027,-0.2019,-0.1984,0,0,0,0,0,-0.1969,-0.1977,-0.2005,-0.2014,-0.2029,-0.204,-0.2047,-0.2052,-0.2057,-0.2059,-0.2055,-0.2045,-0.2035,-0.2034,-0.2033,-0.2045,-0.2031,-0.2042,-0.2045,-0.2047,-0.2042,-0.204,-0.2042,-0.2021,-0.2021,-0.2021,0,0,-0.1965,-0.1973,-0.1978,-0.2011,-0.2026,-0.2048,-0.2042,-0.2062,-0.2069,-0.2056,-0.2064,-0.2061,-0.2043,-0.2049,-0.205,-0.2041,-0.2045,-0.2049,-0.2051,-0.2045,-0.2042,-0.2043,-0.2045,-0.2022,-0.2022,-0.2022,0,0,-0.1957,-0.1975,-0.1986,-0.2011,-0.204,-0.2053,-0.2062,-0.209,-0.2093,-0.2111,-0.2092,-0.2094,-0.2091,-0.2078,-0.2066,-0.2089,-0.2063,-0.2086,-0.2092,-0.209,-0.2092,-0.2093,-0.2072,-0.2071,-0.2085,-0.2085,-0.2085,0,-0.1955,-0.1968,-0.1994,-0.2014,-0.2023,-0.2055,-0.2074,-0.209,-0.2115,-0.2118,-0.2114,-0.2108,-0.2099,-0.2088,-0.209,-0.2094,-0.2084,-0.2078,-0.2093,-0.2094,-0.2095,-0.2073,-0.2072,-0.2086,-0.2086,-0.2086,-0.2086,0,-0.1959,-0.1974,-0.1981,-0.2015,-0.2038,-0.2059,-0.2089,-0.2114,-0.2118,-0.2127,-0.2135,-0.2133,-0.2124,-0.2123,-0.2108,-0.2108,-0.2096,-0.2099,-0.2082,-0.2098,-0.2074,-0.2072,-0.2088,-0.2088,-0.2087,-0.2087,0,0,-0.1935,-0.1979,-0.1979,-0.1994,-0.2038,-0.2057,-0.2079,-0.2108,-0.2114,-0.2139,-0.2139,-0.2133,-0.214,-0.2127,-0.2122,-0.2119,-0.2113,-0.2111,-0.211,-0.2085,-0.2095,-0.202,-0.201,-0.2122,-0.2122,-0.2122,-0.2074,0,-0.1931,-0.1955,-0.198,-0.2002,-0.2018,-0.2056,-0.2072,-0.2102,-0.2121,-0.2137,-0.2138,-0.214,-0.2138,-0.2135,-0.2135,-0.2124,-0.211,-0.2125,-0.2087,-0.2085,-0.2013,-0.2006,-0.1862,-0.1802,-0.2072,-0.2071,-0.2071,0,-0.1915,-0.1934,-0.1953,-0.199,-0.2003,-0.202,-0.205,-0.2074,-0.2107,-0.2123,-0.2136,-0.2144,-0.2145,-0.2141,-0.2126,-0.2137,-0.2112,-0.2101,-0.2099,-0.2017,-0.2006,-0.1831,-0.1788,-0.2068,-0.2068,-0.2068,-0.2068,0,-0.1859,-0.1906,-0.1914,-0.1928,-0.1982,-0.1992,-0.202,-0.206,-0.2081,-0.2113,-0.2129,-0.214,-0.2142,-0.213,-0.2108,-0.2119,-0.2082,-0.2095,-0.1999,-0.1993,-0.1855,-0.1836,-0.2069,-0.2069,-0.207,-0.207,-0.207,0,-0.1821,-0.1825,-0.1888,-0.189,-0.1906,-0.1955,-0.1974,-0.2009,-0.2053,-0.2067,-0.2115,-0.2114,-0.2141,-0.2127,-0.2105,-0.2037,-0.2077,-0.1987,-0.1974,-0.1858,-0.1841,-0.2064,-0.2064,-0.2068,-0.2068,-0.2069,-0.2069,0,-0.1741,-0.1783,-0.1797,-0.1857,-0.1875,-0.1882,-0.1947,-0.1957,-0.2017,-0.2036,-0.2046,-0.2094,-0.2072,-0.2078,-0.2051,-0.2019,-0.1972,-0.1933,-0.1785,-0.1754,-0.1885,-0.1887,-0.1825,-0.1822,-0.1819,-0.1817,-0.1815,0,-0.1696,-0.1696,-0.176,-0.1766,-0.1787,-0.1818,-0.1834,-0.1917,-0.1937,-0.2004,-0.1999,-0.2008,-0.1976,-0.1921,-0.1864,-0.1799,-0.1878,-0.164,-0.1633,-0.1866,-0.1859,-0.1865,-0.1871,-0.1458,-0.1454,-0.145,-0.1447,0,-0.1608,-0.1634,-0.1648,-0.1671,-0.1687,-0.1718,-0.1755,-0.1773,-0.1857,-0.1874,-0.1873,-0.1854,-0.1811,-0.1679,-0.1618,-0.1566,-0.1645,-0.156,-0.1833,-0.1547,-0.1517,-0.1512,-0.1529,-0.1413,-0.1416,-0.1419,-0.1421,-0.1422,-0.1527,-0.1522,-0.1544,-0.1555,-0.1581,-0.1591,-0.1573,-0.1622,-0.1632,-0.1627,-0.1687,-0.1608,-0.1606,-0.1419,-0.1345,-0.1293,-0.1406,-0.1357,-0.137,-0.1387,-0.1357,-0.1325,-0.1178,-0.118,-0.1182,-0.1184,-0.1185,0,-0.1416,-0.1421,-0.1426,-0.1435,-0.1416,-0.1471,-0.1491,-0.145,-0.1412,-0.1426,-0.1396,-0.1243,-0.1153,-0.1156,-0.1015,-0.0995,-0.1,-0.0964,-0.0975,-0.1007,-0.1037,-0.0992,-0.0715,-0.0713,-0.0712,-0.0711,0,0,-0.135,-0.1313,-0.1325,-0.1262,-0.1265,-0.12,-0.1183,-0.1143,-0.1129,-0.1045,-0.0999,-0.1067,-0.1104,-0.0907,-0.0865,-0.0765,-0.0879,-0.0725,-0.1099,-0.1142,-0.117,-0.1255,-0.122,0,0,0,0,0]},{"header":{"parameterUnit":"m.s-1","parameterCategory":2,"la1":30.2991,"la2":30.254,"lo1":-89.0895,"lo2":-89.0444,"dy":0.0017,"dx":0.0017,"nx":28,"ny":28,"refTime":"2023-09-21T21:00:00:Z","depth":"2","parameterNumber":3,"parameterNumberName":"V-component_of_CURRENTS"},"data":[0,0,0,0,0,0,0,0,0,0,0,0,0,0,0,0,0,0,0,0,0,0,0,0,0,0,0,0,0,0,0,0,0,0,0,0,0,0,0,0,0,0,0,0,0,0,0,0,0,0,0,0,0,0,0,0,0,0,-0.0249,-0.0249,0,-0.0168,-0.0167,-0.0166,-0.0114,-0.0114,-0.0114,-0.0114,0.0011,0.0014,0.0018,0,0,0,0,0,0,0,0,0,0,0,0,0,-0.0308,-0.0308,-0.0249,-0.0249,-0.0248,-0.0168,-0.0167,-0.0166,-0.0114,-0.0114,-0.0114,-0.0114,0.001,0.0014,0.0018,0,0,0,0,0,0,0,0,0,0,0,0,0,-0.0259,-0.0308,-0.025,-0.0213,-0.0209,-0.0168,-0.0167,-0.0165,-0.0114,-0.0114,-0.0114,-0.0113,0.0009,0.0014,0.0018,0.0042,0,0,0.0033,0.0035,0,0,0,0,0,0,0,0,-0.0262,-0.0257,-0.022,-0.0216,-0.0211,-0.0152,-0.0142,-0.0094,-0.0114,-0.0149,-0.0114,-0.0113,-0.004,-0.0032,-0.0016,0.0048,0.0053,0.0033,0.0036,0.0038,0.0039,0,0,0,0,0,0,0,-0.0266,-0.026,-0.0216,-0.0219,-0.0214,-0.0183,-0.0176,-0.0132,-0.0095,-0.0146,-0.0142,-0.0135,-0.0037,-0.002,-0.0012,0.0055,0.0033,0.0037,0.004,0.0042,0.0163,0.0163,0,0,0,0,0,0,-0.0281,-0.0264,-0.0218,-0.0214,-0.0238,-0.0183,-0.0175,-0.017,-0.0097,-0.0086,-0.0136,-0.0133,-0.0029,-0.0018,-0.0008,0.0031,0.0038,0.0043,0.0045,0.0162,0.0163,0.0163,0,0,0,0,0,0,-0.0283,-0.0278,-0.0222,-0.0238,-0.0228,-0.0183,-0.0177,-0.0169,-0.0151,-0.009,-0.0078,-0.0127,-0.0028,-0.0014,0.0032,0.0036,0.0045,0.0049,0.0162,0.0163,0.0163,0.0104,0,0,0,0,0,0,-0.0285,-0.0279,-0.0283,-0.0239,-0.0228,-0.0202,-0.0178,-0.0168,-0.0148,-0.0144,-0.0078,-0.0066,-0.0027,0.0025,0.0037,0.0043,0.0053,0.0162,0.0162,0.0163,0.0105,0.0102,0.01,0,0,0,0,0,-0.0288,-0.0294,-0.0284,-0.0278,-0.0234,-0.0202,-0.0193,-0.0159,-0.0148,-0.0142,-0.0096,-0.0068,0.0038,0.0029,0.0043,0.005,0.0161,0.0162,0.0163,0.0107,0.0103,0.01,0,0,0,0,0,0,-0.0324,-0.0288,-0.0276,-0.0272,-0.0242,-0.0194,-0.0186,-0.0163,-0.0123,-0.012,-0.0063,-0.0047,-0.0007,0.0031,0.002,0.0088,0.0104,0.0108,0.0057,0.0054,0.0051,0.0036,0.0057,0,0,0,0,0,-0.0335,-0.0329,-0.0289,-0.0288,-0.0274,-0.0232,-0.0215,-0.0193,-0.0152,-0.0134,-0.0087,-0.0037,0.0008,0.0037,0.0081,0.0119,0.0153,0.0134,0.0131,0.0128,0.0127,0.0176,0.0177,0.0166,0.0166,0.0166,0,0,-0.0349,-0.033,-0.0327,-0.0295,-0.0269,-0.0251,-0.0221,-0.0201,-0.0184,-0.0126,-0.0089,-0.0047,0.0015,0.0056,0.0078,0.0089,0.0149,0.0129,0.0126,0.0126,0.0177,0.0177,0.0178,0.0167,0.0166,0.0166,0,0,-0.0374,-0.0358,-0.0358,-0.0335,-0.0301,-0.0272,-0.027,-0.0222,-0.0198,-0.016,-0.0116,-0.0072,-0.0002,0.0044,0.0075,0.0086,0.0128,0.01,0.0079,0.0126,0.0127,0.0129,0.0166,0.0171,0.0103,0.0103,0.0102,0,-0.0395,-0.0388,-0.0354,-0.0345,-0.0331,-0.0285,-0.0279,-0.0246,-0.019,-0.017,-0.0156,-0.0055,-0.0007,0.0049,0.0052,0.0079,0.0108,0.0083,0.0121,0.0123,0.0126,0.0164,0.017,0.01,0.01,0.01,0.0101,0,-0.0411,-0.0406,-0.0404,-0.0378,-0.0358,-0.0347,-0.0299,-0.0275,-0.0244,-0.0207,-0.0154,-0.0087,-0.0028,-0.0005,0.0028,0.0071,0.0086,0.0106,0.0124,0.0123,0.0164,0.0171,0.0096,0.0097,0.0098,0.0098,0,0,-0.046,-0.0424,-0.0425,-0.0419,-0.0375,-0.0363,-0.0334,-0.0293,-0.0277,-0.0219,-0.0189,-0.0112,-0.0079,-0.0041,0.0008,0.0052,0.0092,0.008,0.0084,0.0107,0.0189,0.0216,0.0227,0.0114,0.0116,0.0117,0.0208,0,-0.0484,-0.0483,-0.0454,-0.0452,-0.0445,-0.0398,-0.0376,-0.0335,-0.0291,-0.0249,-0.0177,-0.013,-0.0091,-0.0066,-0.0016,0.0067,0.011,0.0065,0.0196,0.02,0.0216,0.0236,0.0208,0.0289,0.0216,0.0217,0.0218,0,-0.0509,-0.0505,-0.0509,-0.0488,-0.0481,-0.0472,-0.0435,-0.0409,-0.0338,-0.0304,-0.0245,-0.0185,-0.0107,-0.0079,0.0057,0.0024,0.0098,0.016,0.0166,0.0217,0.0242,0.0282,0.0306,0.0231,0.023,0.0229,0.0228,0,-0.0558,-0.0546,-0.0552,-0.0544,-0.0509,-0.0505,-0.0487,-0.043,-0.0409,-0.034,-0.0317,-0.0216,-0.0162,-0.0059,0.0072,0.0065,0.0219,0.0229,0.0323,0.0325,0.0342,0.0344,0.032,0.0319,0.0319,0.0319,0.0319,0,-0.0591,-0.0599,-0.0579,-0.0583,-0.0597,-0.0555,-0.0556,-0.0521,-0.0469,-0.0442,-0.0354,-0.0303,-0.0154,-0.0045,0.0064,0.0221,0.0217,0.0325,0.0356,0.0321,0.032,0.0302,0.0299,0.0322,0.0322,0.0321,0.032,0,-0.0635,-0.0619,-0.0634,-0.062,-0.0618,-0.0632,-0.0612,-0.0607,-0.0553,-0.0514,-0.0494,-0.0359,-0.021,-0.006,0.0122,0.0216,0.0358,0.0412,0.0357,0.038,0.0431,0.0424,0.0525,0.0527,0.0528,0.0529,0.0531,0,-0.0653,-0.0664,-0.0676,-0.0693,-0.069,-0.07,-0.0703,-0.0658,-0.0642,-0.054,-0.0519,-0.037,-0.0242,0.0031,0.0217,0.0416,0.041,0.0496,0.0483,0.0435,0.0455,0.0445,0.0436,0.048,0.0481,0.0481,0.0482,0,-0.0693,-0.0701,-0.0714,-0.0751,-0.077,-0.0785,-0.0779,-0.0777,-0.0708,-0.0648,-0.0526,-0.0413,-0.0151,0.0082,0.0325,0.0429,0.0461,0.0513,0.0494,0.0429,0.04,0.0417,0.0408,0.0486,0.0485,0.0485,0.0485,0.0485,-0.0727,-0.0754,-0.0774,-0.0808,-0.0834,-0.085,-0.0849,-0.0811,-0.0762,-0.0634,-0.0533,-0.0326,-0.0129,0.0245,0.04,0.0539,0.0538,0.057,0.0565,0.0561,0.0537,0.0512,0.0613,0.0613,0.0614,0.0614,0.0614,0,-0.076,-0.0784,-0.0823,-0.086,-0.0892,-0.0889,-0.0879,-0.0838,-0.0755,-0.0609,-0.0456,-0.0206,0.0045,0.0245,0.0481,0.0614,0.0584,0.0618,0.0557,0.0552,0.0548,0.052,0.0594,0.0595,0.0595,0.0595,0,0,-0.0778,-0.0817,-0.0835,-0.0892,-0.0917,-0.0924,-0.091,-0.0816,-0.0695,-0.0518,-0.0349,-0.0155,0.0083,0.0245,0.0394,0.0511,0.0492,0.0508,0.051,0.0415,0.0409,0.0506,0.0456,0,0,0,0,0]}],[{"header":{"parameterUnit":"m.s-1","parameterCategory":2,"la1":30.2991,"la2":30.254,"lo1":-89.0895,"lo2":-89.0444,"dy":0.0017,"dx":0.0017,"nx":28,"ny":28,"refTime":"2023-09-21T21:00:00:Z","depth":"4","parameterNumber":2,"parameterNumberName":"U-component_of_CURRENTS"},"data":[0,0,0,0,0,0,0,0,0,0,0,0,0,0,0,0,0,0,0,0,0,0,0,0,0,0,0,0,0,0,0,0,0,0,0,0,0,0,0,0,0,0,0,0,0,0,0,0,0,0,0,0,0,0,0,0,0,0,-0.1297,-0.1297,0,-0.1351,-0.1352,-0.1352,-0.1379,-0.1379,-0.138,-0.138,-0.1434,-0.1436,-0.1437,0,0,0,0,0,0,0,0,0,0,0,0,0,-0.126,-0.126,-0.1297,-0.1298,-0.1298,-0.1351,-0.1352,-0.1352,-0.1379,-0.1379,-0.138,-0.138,-0.1434,-0.1435,-0.1437,0,0,0,0,0,0,0,0,0,0,0,0,0,-0.1289,-0.126,-0.1296,-0.132,-0.1322,-0.1351,-0.1352,-0.1353,-0.1379,-0.1379,-0.138,-0.138,-0.1433,-0.1435,-0.1437,-0.1444,0,0,-0.1443,-0.1444,0,0,0,0,0,0,0,0,-0.1288,-0.1291,-0.1315,-0.1318,-0.1321,-0.136,-0.1359,-0.1384,-0.1379,-0.1355,-0.138,-0.138,-0.1411,-0.1415,-0.1421,-0.1446,-0.1449,-0.1443,-0.1444,-0.1445,-0.1446,0,0,0,0,0,0,0,-0.1286,-0.1289,-0.1316,-0.1316,-0.132,-0.1343,-0.1346,-0.1364,-0.1379,-0.1358,-0.136,-0.1369,-0.1412,-0.1419,-0.1423,-0.145,-0.1443,-0.1445,-0.1446,-0.1447,-0.1554,-0.1556,0,0,0,0,0,0,-0.128,-0.1286,-0.1315,-0.1318,-0.1307,-0.1343,-0.1347,-0.1346,-0.1379,-0.1385,-0.1369,-0.137,-0.1416,-0.1421,-0.1425,-0.1499,-0.1445,-0.1447,-0.1448,-0.1552,-0.1554,-0.1556,0,0,0,0,0,0,-0.1279,-0.1282,-0.1312,-0.1306,-0.1312,-0.1343,-0.1342,-0.1347,-0.1376,-0.1388,-0.1394,-0.1396,-0.1416,-0.1422,-0.1459,-0.1499,-0.1448,-0.145,-0.155,-0.1553,-0.1555,-0.1606,0,0,0,0,0,0,-0.1277,-0.1281,-0.1288,-0.1305,-0.1312,-0.1342,-0.1342,-0.1348,-0.1381,-0.1384,-0.1413,-0.1417,-0.1417,-0.1456,-0.1461,-0.1501,-0.1451,-0.1548,-0.1552,-0.1555,-0.1602,-0.161,-0.1617,0,0,0,0,0,-0.1276,-0.1284,-0.1288,-0.1292,-0.1317,-0.1343,-0.1349,-0.1371,-0.1382,-0.1398,-0.1419,-0.1417,-0.148,-0.1459,-0.1464,-0.1505,-0.1547,-0.1551,-0.1554,-0.1599,-0.1608,-0.1616,0,0,0,0,0,0,-0.127,-0.1288,-0.1292,-0.1305,-0.1328,-0.1348,-0.1371,-0.1385,-0.1414,-0.1424,-0.1432,-0.1438,-0.1488,-0.1489,-0.1465,-0.1547,-0.1516,-0.1521,-0.1548,-0.1557,-0.1564,-0.1555,-0.1453,0,0,0,0,0,-0.1271,-0.1283,-0.1303,-0.1314,-0.133,-0.1355,-0.1373,-0.1388,-0.1412,-0.1426,-0.1449,-0.1476,-0.1505,-0.1524,-0.1545,-0.1585,-0.1563,-0.1618,-0.1625,-0.1631,-0.1628,-0.1625,-0.1631,-0.1569,-0.1569,-0.1569,0,0,-0.1272,-0.1285,-0.1291,-0.1315,-0.1337,-0.1373,-0.1367,-0.1401,-0.1438,-0.1427,-0.149,-0.1502,-0.1521,-0.1568,-0.1591,-0.1575,-0.1638,-0.1636,-0.1641,-0.1635,-0.1629,-0.1635,-0.164,-0.1571,-0.1571,-0.157,0,0,-0.1288,-0.1293,-0.1317,-0.134,-0.1378,-0.1396,-0.1412,-0.1447,-0.1472,-0.1524,-0.1529,-0.156,-0.1613,-0.1626,-0.1641,-0.1701,-0.1676,-0.172,-0.1751,-0.1748,-0.1752,-0.1756,-0.1732,-0.1733,-0.1724,-0.1725,-0.1725,0,-0.1292,-0.1317,-0.1329,-0.1364,-0.139,-0.1412,-0.145,-0.1483,-0.1527,-0.1545,-0.1555,-0.1623,-0.1641,-0.1684,-0.171,-0.1717,-0.1701,-0.1715,-0.1755,-0.1758,-0.1761,-0.1735,-0.1736,-0.1727,-0.1727,-0.1727,-0.1727,0,-0.1328,-0.1357,-0.1376,-0.1427,-0.1455,-0.1489,-0.1531,-0.1567,-0.1603,-0.1626,-0.168,-0.17,-0.173,-0.1754,-0.1755,-0.1792,-0.1769,-0.1762,-0.1727,-0.177,-0.1741,-0.174,-0.1732,-0.1731,-0.173,-0.1729,0,0,-0.1314,-0.1387,-0.1398,-0.1424,-0.1489,-0.151,-0.1578,-0.1626,-0.1658,-0.1711,-0.1745,-0.1806,-0.18,-0.1816,-0.1819,-0.1826,-0.1837,-0.1808,-0.1807,-0.1774,-0.1815,-0.1692,-0.1679,-0.1836,-0.1837,-0.1837,-0.1785,0,-0.1342,-0.1406,-0.1443,-0.1508,-0.154,-0.1581,-0.1634,-0.1679,-0.1719,-0.1757,-0.1784,-0.1821,-0.183,-0.1841,-0.1854,-0.1841,-0.1839,-0.1851,-0.1788,-0.1785,-0.1662,-0.1676,-0.1838,-0.1784,-0.1784,-0.1784,-0.1783,0,-0.1366,-0.1404,-0.1468,-0.153,-0.155,-0.1596,-0.1657,-0.1707,-0.1762,-0.179,-0.1826,-0.184,-0.1868,-0.1865,-0.1863,-0.187,-0.1848,-0.1835,-0.1832,-0.1696,-0.1661,-0.1735,-0.1782,-0.1782,-0.1782,-0.1782,-0.1782,0,-0.1328,-0.1416,-0.1462,-0.1487,-0.1568,-0.1603,-0.165,-0.1712,-0.1744,-0.1802,-0.1821,-0.1855,-0.1869,-0.1861,-0.1846,-0.1855,-0.1822,-0.1826,-0.1692,-0.1683,-0.1786,-0.1783,-0.1814,-0.1814,-0.1814,-0.1814,-0.1815,0,-0.1318,-0.1356,-0.1449,-0.1469,-0.152,-0.1584,-0.1635,-0.1684,-0.1743,-0.1761,-0.1826,-0.1826,-0.187,-0.1858,-0.184,-0.1752,-0.1814,-0.1687,-0.1659,-0.181,-0.181,-0.1785,-0.1782,-0.1812,-0.1813,-0.1813,-0.1814,0,-0.1256,-0.1323,-0.1376,-0.1469,-0.1501,-0.1533,-0.1622,-0.1643,-0.1717,-0.174,-0.1756,-0.1809,-0.1782,-0.1797,-0.1773,-0.1723,-0.1665,-0.1618,-0.1763,-0.1746,-0.153,-0.1531,-0.1457,-0.1452,-0.1448,-0.1445,-0.1442,0,-0.1225,-0.1248,-0.1358,-0.1384,-0.1428,-0.1491,-0.1522,-0.1615,-0.1634,-0.1701,-0.169,-0.1704,-0.1717,-0.158,-0.1616,-0.1555,-0.1543,-0.1508,-0.1535,-0.1511,-0.1493,-0.15,-0.1507,-0.1435,-0.1434,-0.1433,-0.1432,0,-0.1156,-0.1209,-0.1248,-0.1306,-0.135,-0.1395,-0.145,-0.1453,-0.1536,-0.162,-0.157,-0.1542,-0.1505,-0.148,-0.1443,-0.1407,-0.1531,-0.1466,-0.1474,-0.1499,-0.1484,-0.1472,-0.1483,-0.1418,-0.142,-0.1421,-0.1422,0,-0.1099,-0.1112,-0.1169,-0.1206,-0.1261,-0.1269,-0.1319,-0.1327,-0.1358,-0.1441,-0.1411,-0.1425,-0.1475,-0.1399,-0.1362,-0.1317,-0.1303,-0.1273,-0.1292,-0.1308,-0.1285,-0.1245,-0.107,0,0,0,0,0,-0.1035,-0.1033,-0.1062,-0.1095,-0.1145,-0.1174,-0.125,-0.13,-0.1384,-0.1306,-0.1357,-0.131,-0.125,-0.1263,-0.1183,-0.1296,-0.1314,-0.12,-0.1291,-0.134,-0.1356,-0.1344,0,0,0,0,0,0,-0.0985,-0.1009,-0.1022,-0.099,-0.0988,-0.1025,-0.1066,-0.1127,-0.11,-0.1188,-0.1158,-0.1227,-0.1187,-0.1263,-0.1151,-0.1155,-0.1186,-0.1222,-0.1218,-0.1331,-0.1345,-0.1358,-0.1351,0,0,0,0,0]},{"header":{"parameterUnit":"m.s-1","parameterCategory":2,"la1":30.2991,"la2":30.254,"lo1":-89.0895,"lo2":-89.0444,"dy":0.0017,"dx":0.0017,"nx":28,"ny":28,"refTime":"2023-09-21T21:00:00:Z","depth":"4","parameterNumber":3,"parameterNumberName":"V-component_of_CURRENTS"},"data":[0,0,0,0,0,0,0,0,0,0,0,0,0,0,0,0,0,0,0,0,0,0,0,0,0,0,0,0,0,0,0,0,0,0,0,0,0,0,0,0,0,0,0,0,0,0,0,0,0,0,0,0,0,0,0,0,0,0,-0.0187,-0.0187,0,-0.0146,-0.0145,-0.0145,-0.0114,-0.0114,-0.0114,-0.0113,-0.0023,-0.0021,-0.0019,0,0,0,0,0,0,0,0,0,0,0,0,0,-0.0209,-0.0209,-0.0187,-0.0187,-0.0186,-0.0146,-0.0145,-0.0145,-0.0114,-0.0114,-0.0114,-0.0113,-0.0024,-0.0021,-0.0018,0,0,0,0,0,0,0,0,0,0,0,0,0,-0.0186,-0.0209,-0.0187,-0.0167,-0.0165,-0.0146,-0.0145,-0.0144,-0.0114,-0.0114,-0.0114,-0.0113,-0.0025,-0.0021,-0.0018,-0.0002,0,0,-0.0008,-0.0006,0,0,0,0,0,0,0,0,-0.0187,-0.0185,-0.017,-0.0168,-0.0166,-0.0136,-0.012,-0.0095,-0.0114,-0.0132,-0.0113,-0.0113,-0.0057,-0.0051,-0.0043,0.0002,0.0006,-0.0007,-0.0005,-0.0004,-0.0003,0,0,0,0,0,0,0,-0.0189,-0.0186,-0.0169,-0.017,-0.0167,-0.015,-0.0146,-0.0115,-0.0095,-0.013,-0.0128,-0.0126,-0.0055,-0.0046,-0.004,0.0007,-0.0008,-0.0005,-0.0002,-0.0001,0.0103,0.0104,0,0,0,0,0,0,-0.0198,-0.0188,-0.0171,-0.0168,-0.0177,-0.015,-0.0146,-0.0145,-0.0096,-0.0089,-0.0126,-0.0125,-0.0052,-0.0044,-0.0037,0.0001,-0.0004,-0.0001,0.0001,0.0102,0.0103,0.0104,0,0,0,0,0,0,-0.0199,-0.0197,-0.0172,-0.0178,-0.0174,-0.015,-0.0149,-0.0144,-0.0136,-0.0093,-0.0085,-0.0123,-0.0052,-0.0042,-0.001,0.0004,0.0001,0.0004,0.0101,0.0102,0.0103,0.0067,0,0,0,0,0,0,-0.02,-0.0198,-0.0202,-0.0179,-0.0174,-0.0165,-0.0149,-0.0144,-0.0136,-0.0133,-0.0088,-0.008,-0.0051,-0.0016,-0.0007,0.0009,0.0006,0.01,0.0102,0.0103,0.0068,0.0067,0.0067,0,0,0,0,0,-0.02,-0.0209,-0.0203,-0.0201,-0.018,-0.0165,-0.0161,-0.0142,-0.0136,-0.0134,-0.0103,-0.0081,-0.0,-0.0013,-0.0003,0.0015,0.01,0.0101,0.0103,0.0068,0.0067,0.0067,0,0,0,0,0,0,-0.0222,-0.0206,-0.0199,-0.0202,-0.0186,-0.016,-0.0159,-0.0146,-0.0121,-0.012,-0.0079,-0.0068,-0.0032,-0.0005,-0.002,0.0051,0.0057,0.006,0.0027,0.0026,0.0026,0.0012,0.0009,0,0,0,0,0,-0.023,-0.0233,-0.0211,-0.0215,-0.0207,-0.0184,-0.0177,-0.0165,-0.014,-0.0129,-0.0096,-0.0056,-0.0017,0.0005,0.0041,0.0074,0.0095,0.0095,0.0095,0.0094,0.0091,0.0132,0.0135,0.0109,0.0109,0.0109,0,0,-0.024,-0.0233,-0.0234,-0.022,-0.0206,-0.0194,-0.0179,-0.0171,-0.0158,-0.0122,-0.0094,-0.0061,-0.001,0.0028,0.0048,0.0053,0.0113,0.0096,0.0095,0.0092,0.0134,0.0137,0.0139,0.011,0.011,0.011,0,0,-0.0259,-0.0254,-0.0258,-0.0245,-0.0229,-0.0211,-0.0211,-0.0184,-0.0167,-0.0141,-0.0106,-0.0069,-0.0013,0.0029,0.0057,0.0076,0.0105,0.0093,0.0083,0.0123,0.0125,0.0127,0.0151,0.0156,0.0096,0.0096,0.0096,0,-0.0272,-0.0273,-0.0257,-0.0253,-0.0246,-0.0219,-0.0216,-0.0193,-0.0159,-0.0144,-0.0136,-0.0051,-0.001,0.0045,0.0054,0.0075,0.0094,0.0077,0.0121,0.0123,0.0126,0.015,0.0156,0.0095,0.0095,0.0095,0.0095,0,-0.0285,-0.0286,-0.0288,-0.0273,-0.0261,-0.0257,-0.0224,-0.0207,-0.0186,-0.016,-0.0112,-0.006,-0.001,0.0016,0.0041,0.0088,0.0093,0.0109,0.0116,0.0126,0.0151,0.0158,0.0093,0.0093,0.0094,0.0094,0,0,-0.0319,-0.0301,-0.0304,-0.03,-0.0273,-0.0267,-0.0242,-0.0211,-0.0198,-0.0154,-0.0129,-0.0056,-0.0034,-0.0,0.0041,0.0081,0.0117,0.0099,0.0102,0.0111,0.0193,0.0182,0.0188,0.0137,0.0138,0.0139,0.02,0,-0.0335,-0.0339,-0.0322,-0.0322,-0.0317,-0.0286,-0.0266,-0.0235,-0.0203,-0.0171,-0.0109,-0.007,-0.0036,-0.0017,0.0029,0.0095,0.0133,0.0098,0.0192,0.0195,0.0174,0.0195,0.0143,0.0204,0.0206,0.0207,0.0208,0,-0.0354,-0.0354,-0.036,-0.0346,-0.0342,-0.0338,-0.0311,-0.0289,-0.0233,-0.0208,-0.0159,-0.0113,-0.0043,-0.0022,0.0091,0.0064,0.0123,0.0173,0.0177,0.0183,0.0196,0.0197,0.0219,0.0218,0.0218,0.0217,0.0216,0,-0.0387,-0.0382,-0.0391,-0.0386,-0.0362,-0.0363,-0.035,-0.0306,-0.029,-0.0236,-0.022,-0.0134,-0.0093,-0.0007,0.0097,0.0093,0.0214,0.0225,0.0271,0.027,0.0276,0.0273,0.0302,0.0302,0.0302,0.0302,0.0302,0,-0.0407,-0.0417,-0.0413,-0.0417,-0.0432,-0.0402,-0.0407,-0.038,-0.0341,-0.0321,-0.0249,-0.021,-0.0088,-0.0002,0.0088,0.0196,0.021,0.027,0.0289,0.0259,0.0254,0.028,0.0276,0.0304,0.0304,0.0303,0.0303,0,-0.0435,-0.0431,-0.0448,-0.0445,-0.0448,-0.0462,-0.0455,-0.0451,-0.0412,-0.0384,-0.0369,-0.0264,-0.0151,-0.003,0.0118,0.018,0.0288,0.0323,0.0272,0.0287,0.0316,0.031,0.0374,0.0374,0.0375,0.0375,0.0375,0,-0.0446,-0.0458,-0.0483,-0.0501,-0.0506,-0.052,-0.0527,-0.0495,-0.0482,-0.041,-0.0393,-0.0285,-0.0204,-0.0003,0.0118,0.028,0.0305,0.0348,0.0342,0.0313,0.0326,0.032,0.0314,0.0375,0.0375,0.0375,0.0375,0,-0.0469,-0.0488,-0.0503,-0.0543,-0.0567,-0.0583,-0.0585,-0.0579,-0.0529,-0.0501,-0.0395,-0.0283,-0.0155,0.0001,0.0126,0.0244,0.0313,0.0351,0.0351,0.0345,0.0315,0.0326,0.032,0.0376,0.0376,0.0376,0.0376,0,-0.0495,-0.0519,-0.0546,-0.0577,-0.0613,-0.0626,-0.0624,-0.0584,-0.0558,-0.0467,-0.0433,-0.0284,-0.0191,-0.0017,0.0101,0.0211,0.0237,0.0265,0.027,0.0271,0.0222,0.0167,0.0202,0,0,0,0,0,-0.0511,-0.0536,-0.0571,-0.0604,-0.064,-0.0652,-0.0648,-0.0632,-0.0587,-0.0515,-0.0466,-0.0339,-0.0145,-0.0054,0.0056,0.0085,0.0236,0.0213,0.0266,0.0379,0.0378,0.0338,0,0,0,0,0,0,-0.0524,-0.0561,-0.0573,-0.0615,-0.064,-0.0669,-0.0667,-0.0636,-0.0576,-0.0516,-0.0404,-0.0331,-0.0138,-0.0211,0.0051,0.0085,0.0129,0.0311,0.0313,0.038,0.0379,0.0378,0.0336,0,0,0,0,0]}]]